Weather reports worldwide

Advertisment
Niort, France (7330): temperature & dewpoint: 12.01.2020 12:00:00 - 18.01.2020 12:00:00 (CET)Niort, France (7330): temperature 5cm: 12.01.2020 12:00:00 - 18.01.2020 12:00:00 (CET)Niort, France (7330): temperature -20cm & temperature -100cm: 12.01.2020 12:00:00 - 18.01.2020 12:00:00 (CET)Niort, France (7330): wind speed & gusts: 12.01.2020 12:00:00 - 18.01.2020 12:00:00 (CET)Niort, France (7330): wind direction: 12.01.2020 12:00:00 - 18.01.2020 12:00:00 (CET)Niort, France (7330): reduced air pressure: 12.01.2020 12:00:00 - 18.01.2020 12:00:00 (CET)Niort, France (7330): visibility: 12.01.2020 12:00:00 - 18.01.2020 12:00:00 (CET)Niort, France (7330): sunshine duration: 12.01.2020 12:00:00 - 18.01.2020 12:00:00 (CET)Niort, France (7330): precipitation: 12.01.2020 12:00:00 - 18.01.2020 12:00:00 (CET)
Date & Time tt [°C] td [°C] tt 5cm [°C] tt -20cm [°C] tt -100cm [°C] ff [km/h] ff [kn] fx [km/h] fx [kn] dd ppp [hPa] vv [km] sd [min] rr [mm]
18.01.2020 12:00:00 - - - - - - - - - - - - - -
18.01.2020 11:00:00 5,1 4,1 3,3 8,9 9,9 15 8 22 12 SE 1028,7 18 25 0,0
18.01.2020 10:00:00 3,5 3,2 2,2 8,9 9,9 11 6 19 10 ESE 1028,9 17 0 0,0
18.01.2020 09:00:00 3,0 2,7 1,3 8,9 9,9 12 6 18 10 SE 1029,3 18 0 0,0
18.01.2020 08:00:00 2,7 2,3 0,5 8,9 10,0 9 5 13 7 SE 1029,6 18 0 0,0
18.01.2020 07:00:00 2,8 2,5 1,2 8,9 10,0 8 4 13 7 E 1029,6 18 0 0,0
18.01.2020 06:00:00 2,3 2,2 -0,1 8,9 9,9 8 4 11 6 ESE 1029,7 16 0 0,0
18.01.2020 05:00:00 1,5 1,1 0,1 8,9 9,9 4 2 10 5 ESE 1030,0 12 0 0,0
18.01.2020 04:00:00 2,1 1,8 -0,1 8,9 9,9 5 3 11 6 ESE 1029,9 14 0 0,0
18.01.2020 03:00:00 2,1 1,8 -0,4 8,9 9,9 11 6 14 7 SSE 1030,3 14 0 0,0
18.01.2020 02:00:00 1,5 1,1 -1,0 8,9 9,9 7 4 12 7 ESE 1030,6 14 0 0,0
18.01.2020 01:00:00 1,8 1,2 -1,0 8,9 10,0 8 5 11 6 SSE 1030,3 19 0 0,0
18.01.2020 00:00:00 2,3 1,1 0,6 8,9 9,9 5 3 11 6 S 1030,6 20 0 0,0
17.01.2020 23:00:00 3,4 2,2 1,1 8,9 10,0 7 4 11 6 S 1030,2 20 0 0,0
17.01.2020 22:00:00 3,8 2,5 1,8 8,9 9,9 8 4 10 5 S 1029,9 20 0 0,0
17.01.2020 21:00:00 5,2 3,2 1,7 8,9 9,9 7 4 11 6 SW 1029,4 20 0 0,0
17.01.2020 20:00:00 5,6 3,4 2,8 8,9 10,0 9 5 13 7 SW 1028,9 20 0 0,0
17.01.2020 19:00:00 6,0 4,3 2,3 8,8 9,9 5 3 13 7 SW 1028,1 20 0 0,0
17.01.2020 18:00:00 5,9 4,2 3,4 8,8 9,9 7 4 44 24 WNW 1027,5 20 10 2,0
17.01.2020 17:00:00 10,0 5,2 9,4 8,8 9,9 16 8 26 14 W 1026,0 20 49 0,0
17.01.2020 16:00:00 10,3 5,5 11,9 8,8 10,0 19 10 37 20 NW 1025,4 20 60 0,0
17.01.2020 15:00:00 10,7 5,0 7,3 8,8 10,0 17 9 49 26 W 1024,4 20 35 0,0
17.01.2020 14:00:00 8,8 6,1 7,0 8,8 10,0 11 6 29 16 NW 1024,1 14 45 0,4
17.01.2020 13:00:00 10,9 6,8 9,1 8,8 9,9 15 8 22 12 WSW 1023,8 19 23 0,0
17.01.2020 12:00:00 10,1 7,7 8,8 8,8 9,9 15 8 22 12 WSW 1023,8 16 0 0,0
17.01.2020 11:00:00 8,9 7,5 7,9 8,8 10,0 9 5 15 8 SSW 1022,8 20 0 0,0
17.01.2020 10:00:00 8,2 7,4 7,6 8,8 10,0 10 5 25 13 SSW 1021,8 19 0 0,2
17.01.2020 09:00:00 8,9 7,5 7,2 8,8 10,0 20 11 35 19 W 1021,4 15 0 0,0
17.01.2020 08:00:00 8,8 7,7 7,5 8,8 10,0 11 6 40 21 SW 1020,4 20 0 0,8
17.01.2020 07:00:00 8,4 6,9 7,5 8,8 10,0 16 9 45 25 WSW 1019,7 8 0 3,5
17.01.2020 06:00:00 9,9 9,1 9,2 8,8 10,0 23 12 34 18 SSW 1018,8 20 0 0,2
17.01.2020 05:00:00 9,8 9,3 8,7 8,8 10,0 21 11 34 18 S 1018,4 14 0 0,6
17.01.2020 04:00:00 9,2 8,7 8,4 8,8 10,0 15 8 24 13 S 1019,1 5 0 0,4
17.01.2020 03:00:00 9,4 8,2 8,5 8,8 10,0 15 8 25 14 S 1019,0 16 0 0,4
17.01.2020 02:00:00 9,7 8,0 8,6 8,8 10,0 14 8 30 16 S 1018,5 11 0 0,2
17.01.2020 01:00:00 10,3 7,7 8,7 8,7 10,0 20 11 44 24 SSW 1018,8 14 0 0,6
17.01.2020 00:00:00 11,5 7,0 10,9 8,8 10,0 30 16 51 28 S 1018,2 20 0 0,0
16.01.2020 23:00:00 11,5 7,4 10,8 8,8 10,0 37 20 60 32 S 1017,4 20 0 0,0
16.01.2020 22:00:00 11,5 7,4 10,1 8,8 10,0 38 20 58 31 S 1017,5 20 0 0,0
16.01.2020 21:00:00 11,2 7,3 10,1 8,8 10,0 31 17 48 26 S 1017,8 20 0 0,0
16.01.2020 20:00:00 11,5 7,0 9,1 8,8 10,0 25 14 38 21 SSE 1018,1 20 0 0,0
16.01.2020 19:00:00 11,2 6,7 8,4 8,7 10,0 18 10 28 15 SSE 1018,4 20 0 0,0
16.01.2020 18:00:00 12,3 7,2 10,4 8,8 10,0 17 9 34 18 SSE 1018,7 20 15 0,0
16.01.2020 17:00:00 14,0 7,7 14,3 8,8 10,0 22 12 34 18 SSE 1018,4 20 60 0,0
16.01.2020 16:00:00 14,8 8,3 16,9 8,8 10,0 19 10 35 19 SSE 1019,0 20 60 0,0
16.01.2020 15:00:00 14,9 8,4 17,1 8,8 10,0 24 13 40 22 S 1019,4 20 60 0,0
16.01.2020 14:00:00 14,2 7,9 16,2 8,8 10,0 27 14 41 22 SSE 1020,2 20 60 0,0
16.01.2020 13:00:00 13,4 7,8 12,9 8,8 10,0 22 12 34 18 SSE 1021,3 20 48 0,0
16.01.2020 12:00:00 11,8 7,7 9,7 8,8 10,0 24 13 41 22 SSE 1022,1 20 60 0,0
16.01.2020 11:00:00 9,8 7,4 6,8 8,8 10,0 25 14 36 19 SSE 1022,6 19 32 0,0
16.01.2020 10:00:00 7,5 6,1 5,2 8,9 10,0 25 13 36 19 SE 1022,7 18 49 0,0
16.01.2020 09:00:00 6,4 5,8 4,7 8,8 10,0 20 11 30 16 SE 1022,9 15 0 0,0
16.01.2020 08:00:00 6,2 5,8 4,6 8,9 10,0 15 8 26 14 SE 1023,1 13 0 0,0
16.01.2020 07:00:00 6,2 5,9 4,4 8,9 10,0 15 8 24 13 SE 1023,4 12 0 0,0
16.01.2020 06:00:00 5,9 5,8 4,1 8,9 10,0 16 9 21 11 SE 1023,6 10 0 0,0
16.01.2020 05:00:00 6,0 6,0 4,3 8,9 10,0 13 7 21 11 SE 1023,8 11 0 0,0
16.01.2020 04:00:00 6,2 6,2 4,5 8,9 10,0 12 7 21 11 SE 1024,0 6 0 0,0
16.01.2020 03:00:00 6,3 6,3 4,5 8,9 10,0 11 6 22 12 SE 1024,3 5 0 0,0
16.01.2020 02:00:00 6,0 6,0 4,3 8,8 10,0 13 7 18 10 SE 1024,2 4,4 0 0,0
16.01.2020 01:00:00 6,3 6,3 3,9 8,9 10,0 13 7 20 11 SE 1024,5 6 0 0,0
16.01.2020 00:00:00 5,7 5,7 2,4 8,9 10,0 10 5 15 8 ESE 1024,8 4,2 0 0,0
15.01.2020 23:00:00 5,1 5,1 1,1 8,8 10,0 8 4 12 7 ESE 1024,7 1,6 0 0,0
15.01.2020 22:00:00 4,9 4,8 0,3 8,9 10,0 5 3 9 5 SE 1024,5 0,3 0 0,0
15.01.2020 21:00:00 5,5 4,8 0,5 8,9 10,0 2 1 8 5 S 1024,1 0,1 0 0,0
15.01.2020 20:00:00 7,4 7,1 4,3 8,8 10,0 7 4 9 5 SSW 1023,8 8 0 0,0
15.01.2020 19:00:00 8,4 7,8 5,8 8,9 10,0 8 4 12 7 SSW 1022,9 11 0 0,0
15.01.2020 18:00:00 10,1 8,5 8,6 8,9 10,0 11 6 20 11 SW 1021,6 20 14 0,0
15.01.2020 17:00:00 11,7 9,4 11,3 8,9 10,0 14 8 23 12 SW 1020,2 18 8 0,0
15.01.2020 16:00:00 11,8 9,2 11,5 8,9 10,0 14 8 31 17 SSW 1019,0 16 0 0,0
15.01.2020 15:00:00 11,7 8,4 9,7 8,9 10,0 21 11 37 20 SSW 1017,9 19 0 0,0
15.01.2020 14:00:00 11,4 7,1 9,8 8,9 10,0 26 14 52 28 SSW 1017,1 20 0 0,0
15.01.2020 13:00:00 11,6 6,5 10,3 8,9 10,0 27 14 44 24 S 1016,8 20 0 0,0
15.01.2020 12:00:00 11,0 6,1 10,1 8,9 10,0 0 0 - - N 1016,2 20 0 0,0
15.01.2020 11:00:00 10,3 5,9 9,2 8,9 10,0 - - - - - 1015,5 20 0 0,0
15.01.2020 10:00:00 9,5 5,9 7,9 8,8 10,0 34 18 47 26 S 1013,9 20 19 0,0
15.01.2020 09:00:00 8,7 5,4 7,6 8,9 10,0 - - - - - 1013,6 20 0 0,0
15.01.2020 08:00:00 8,6 5,3 7,1 8,9 10,0 - - - - - 1013,4 20 0 0,0
15.01.2020 07:00:00 8,3 5,4 7,1 8,9 10,0 24 13 44 24 SSE 1013,6 20 0 0,0
15.01.2020 06:00:00 8,6 5,5 7,1 8,9 10,0 27 14 45 25 SSE 1013,5 20 0 0,0
15.01.2020 05:00:00 8,2 5,7 6,9 8,8 10,0 23 13 34 19 SSE 1013,5 20 0 0,0
15.01.2020 04:00:00 8,1 5,4 6,5 8,9 10,0 22 12 33 18 SSE 1013,9 20 0 0,0
15.01.2020 03:00:00 7,8 5,4 6,5 8,9 10,0 18 10 31 17 SSE 1014,0 20 0 0,0
15.01.2020 02:00:00 7,9 5,5 7,0 8,8 10,0 22 12 42 23 S 1014,0 20 0 0,0
15.01.2020 01:00:00 8,4 6,0 7,1 8,9 10,0 26 14 43 23 S 1014,4 20 0 0,0
15.01.2020 00:00:00 8,6 5,9 7,1 8,9 10,0 27 15 40 22 S 1014,6 20 0 0,0
14.01.2020 23:00:00 8,8 6,1 7,1 8,9 10,0 24 13 40 22 S 1014,6 20 0 0,0
14.01.2020 22:00:00 9,2 6,1 7,6 8,9 10,0 22 12 33 18 S 1014,5 20 0 0,0
14.01.2020 21:00:00 10,3 6,6 8,4 8,9 10,0 20 11 31 17 SSE 1014,5 20 0 0,0
14.01.2020 20:00:00 10,4 6,9 8,5 8,9 10,0 23 13 31 17 SSE 1014,2 20 0 0,0
14.01.2020 19:00:00 9,9 7,7 8,2 8,8 10,0 14 8 19 11 SE 1014,4 20 0 0,0
14.01.2020 18:00:00 9,4 7,8 8,4 8,9 10,0 9 5 19 11 SSE 1014,5 19 0 0,0
14.01.2020 17:00:00 9,8 7,6 8,6 8,9 10,0 13 7 23 12 SSE 1014,5 20 0 0,0
14.01.2020 16:00:00 10,0 7,4 8,7 8,9 10,0 15 8 29 16 S 1014,9 16 0 0,2
14.01.2020 15:00:00 10,0 7,1 9,2 8,9 10,0 22 12 33 18 S 1014,4 20 0 0,0
14.01.2020 14:00:00 9,9 6,4 8,8 8,9 10,0 19 10 30 16 SSE 1014,2 20 0 0,0
14.01.2020 13:00:00 9,4 6,1 7,9 8,9 10,0 17 9 31 17 S 1015,0 20 0 0,0
14.01.2020 12:00:00 8,5 5,8 6,8 8,9 10,1 18 10 39 21 S 1015,7 20 0 0,0
14.01.2020 11:00:00 7,3 5,4 6,1 8,9 10,0 26 14 41 22 S 1015,1 17 0 0,2
14.01.2020 10:00:00 6,8 5,1 5,7 8,9 10,0 25 13 40 22 SSE 1014,9 17 0 0,0
14.01.2020 09:00:00 6,3 4,9 5,6 8,8 10,0 27 14 40 22 SSE 1014,1 15 0 0,4
14.01.2020 08:00:00 6,4 4,6 5,4 8,9 10,0 24 13 35 19 S 1014,1 15 0 0,0
14.01.2020 07:00:00 7,0 3,4 6,3 8,9 10,1 23 12 38 21 S 1014,1 20 0 0,0
14.01.2020 06:00:00 7,5 3,4 6,9 8,8 10,0 23 13 35 19 S 1013,4 20 0 0,0
14.01.2020 05:00:00 7,2 3,1 6,8 8,8 10,0 20 11 37 20 S 1013,4 20 0 0,0
14.01.2020 04:00:00 7,4 3,1 6,8 8,9 10,1 18 10 33 18 S 1013,5 20 0 0,0
14.01.2020 03:00:00 7,4 3,3 6,9 8,8 10,1 20 11 36 19 S 1013,5 20 0 0,0
14.01.2020 02:00:00 7,5 3,4 6,7 8,8 10,1 21 11 39 21 S 1013,7 20 0 0,0
14.01.2020 01:00:00 7,0 3,8 6,0 8,8 10,0 24 13 36 19 S 1014,0 20 0 0,0
14.01.2020 00:00:00 6,9 4,0 6,0 8,8 10,1 15 8 24 13 SSE 1014,5 20 0 0,0
13.01.2020 23:00:00 7,2 4,5 6,6 8,8 10,1 15 8 26 14 S 1014,8 20 0 0,0
13.01.2020 22:00:00 7,0 4,3 6,5 8,8 10,1 21 11 35 19 S 1015,0 20 0 0,0
13.01.2020 21:00:00 7,4 4,4 7,0 8,8 10,1 22 12 38 20 S 1015,5 20 0 0,0
13.01.2020 20:00:00 7,9 4,7 7,5 8,8 10,1 27 15 41 22 S 1015,4 20 0 0,0
13.01.2020 19:00:00 8,4 5,0 7,4 8,8 10,1 23 12 36 19 S 1015,5 20 0 0,0
13.01.2020 18:00:00 9,0 5,2 8,2 8,8 10,1 20 11 31 17 SSE 1015,9 20 0 0,0
13.01.2020 17:00:00 9,4 5,9 9,0 8,8 10,1 18 10 28 15 S 1016,3 20 0 0,0
13.01.2020 16:00:00 9,9 6,2 10,0 8,8 10,1 21 11 34 18 S 1017,1 20 0 0,0
13.01.2020 15:00:00 10,0 6,7 10,2 8,8 10,1 25 14 36 19 SSE 1017,4 20 0 0,0
13.01.2020 14:00:00 9,5 6,9 9,8 8,8 10,1 16 9 36 19 S 1018,8 20 4 0,0
13.01.2020 13:00:00 9,3 6,9 7,8 8,8 10,1 25 13 37 20 S 1019,6 20 31 0,0
13.01.2020 12:00:00 7,4 6,2 7,4 8,8 10,1 24 13 36 19 S 1021,3 19 0 0,0
13.01.2020 11:00:00 7,3 6,4 6,9 8,8 10,1 18 10 31 17 S 1022,3 19 0 0,0
13.01.2020 10:00:00 7,1 6,2 6,9 8,8 10,1 20 11 29 16 S 1022,5 20 0 0,0
13.01.2020 09:00:00 7,3 6,6 6,9 8,8 10,1 15 8 23 12 S 1022,6 19 0 0,0
13.01.2020 08:00:00 7,4 6,8 7,1 8,8 10,1 15 8 21 11 SSE 1022,8 17 0 0,0
13.01.2020 07:00:00 7,6 7,2 7,4 8,8 10,1 16 9 27 15 S 1023,2 14 0 0,0
13.01.2020 06:00:00 7,7 7,6 7,3 8,8 10,1 17 9 26 14 S 1023,8 15 0 0,0
13.01.2020 05:00:00 7,5 7,5 7,2 8,8 10,1 16 9 23 13 SSE 1024,5 4,9 0 0,6
13.01.2020 04:00:00 7,5 7,5 7,3 8,8 10,1 16 9 25 14 SSE 1025,4 1,7 0 1,0
13.01.2020 03:00:00 7,8 7,8 7,6 8,9 10,1 16 9 25 14 S 1026,0 2,6 0 0,4
13.01.2020 02:00:00 7,8 7,8 7,5 8,8 10,1 13 7 21 11 SSE 1026,6 4,3 0 0,0
13.01.2020 01:00:00 7,7 7,7 7,5 8,8 10,1 13 7 21 11 SSE 1027,3 6 0 0,0
13.01.2020 00:00:00 7,8 7,8 7,6 8,8 10,1 12 7 17 9 SSE 1027,8 6 0 0,0
12.01.2020 23:00:00 8,0 8,0 7,7 8,8 10,1 13 7 17 9 SSE 1028,3 3,9 0 0,0
12.01.2020 22:00:00 7,9 7,9 7,8 8,8 10,1 11 6 16 9 SE 1028,3 4,7 0 0,0
12.01.2020 21:00:00 8,0 8,0 7,8 8,9 10,2 8 4 14 8 SSE 1028,9 3,5 0 0,2
12.01.2020 20:00:00 8,1 8,1 7,9 8,9 10,1 9 5 23 12 S 1029,3 1,3 0 0,4
12.01.2020 19:00:00 8,3 8,3 8,1 8,9 10,1 16 9 26 14 S 1028,6 1,7 0 0,2
12.01.2020 18:00:00 8,6 8,5 8,3 8,9 10,1 17 9 27 15 S 1028,5 2,4 0 0,0
12.01.2020 17:00:00 8,9 8,3 8,2 8,9 10,2 15 8 25 14 S 1028,5 6 0 0,0
12.01.2020 16:00:00 8,8 7,6 7,9 8,9 10,1 16 8 25 14 SSW 1028,6 7 0 0,0
12.01.2020 15:00:00 8,6 6,7 8,1 9,0 10,2 14 8 26 14 S 1028,8 9 0 0,0
12.01.2020 14:00:00 8,0 5,6 7,8 9,0 10,2 12 7 22 12 S 1029,5 20 0 0,0
12.01.2020 13:00:00 7,5 5,3 7,0 9,0 10,2 14 7 25 14 S 1030,3 12 0 0,0
12.01.2020 12:00:00 6,7 4,4 6,5 9,0 10,2 17 9 23 13 S 1030,7 20 0 0,0

tt = temperature
td = dewpoint
tt 5cm = temperature 5cm
tt -20cm = temperature -20cm
tt -100cm = temperature -100cm
ff = wind speed
fx = gusts
dd = wind direction
ppp = reduced air pressure
vv = visibility
sd = sunshine duration
rr = precipitation

Next stations